Location: Chuathbaluk
(61.5726°N, 159.2454°W)
Time: 22:29:55
(UTC+00:00)

Transit 2A - Pass Details

Date: 29 November 2020
Orbit: 598 x 960 km, 66.7° (Epoch: 20 January)

Event Time Altitude Azimuth Distance (km) Brightness Sun altitude
Rises 05:27:33 0° 225° (SW) 3,607 10.1 -26.2°
Reaches altitude 10° 05:30:10 10° 224° (SW) 2,638 9.2 -26.5°
Maximum altitude 05:36:19 77° 140° (SE) 912 6.1 -27.3°
Enters shadow 05:36:22 77° 136° (SE) 912 6.1 -27.3°
Drops below altitude 10° 05:42:01 10° 56° (NE) 2,440 - -27.9°
Sets 05:44:21 0° 55° (NE) 3,321 - -28.2°
